owner,sensor,date,latitude,longitude,air_pressure(mBar),qcFlag 
TABS,ioos:station:wmo:42043:1,2011-09-01T00:00:00Z,28.9818,-94.9186,1012.4,11111222 
TABS,ioos:station:wmo:42043:1,2011-09-01T00:30:00Z,28.9818,-94.9186,1012.4,11111222 
TABS,ioos:station:wmo:42043:1,2011-09-01T01:00:00Z,28.9818,-94.9186,1012.67,11111222 
TABS,ioos:station:wmo:42043:1,2011-09-01T01:30:00Z,28.9818,-94.9186,1012.85,11111222 
TABS,ioos:station:wmo:42043:1,2011-09-01T02:00:00Z,28.9818,-94.9186,1013.03,11111222 
TABS,ioos:station:wmo:42043:1,2011-09-01T02:30:00Z,28.9818,-94.9186,1013.46,11111222 
TABS,ioos:station:wmo:42043:1,2011-09-01T03:00:00Z,28.9818,-94.9186,1013.68,11111222 
TABS,ioos:station:wmo:42043:1,2011-09-01T03:30:00Z,28.9818,-94.9186,1013.8,11111222 
TABS,ioos:station:wmo:42043:1,2011-09-01T04:00:00Z,28.9818,-94.9186,1013.72,11111222 
TABS,ioos:station:wmo:42043:1,2011-09-01T04:30:00Z,28.9818,-94.9186,1013.56,11111222 
TABS,ioos:station:wmo:42043:1,2011-09-01T05:00:00Z,28.9818,-94.9186,1013.4,11111222 
TABS,ioos:station:wmo:42043:1,2011-09-01T05:30:00Z,28.9818,-94.9186,1013.32,11111222 
TABS,ioos:station:wmo:42043:1,2011-09-01T06:00:00Z,28.9818,-94.9186,1013.07,11111222 
TABS,ioos:station:wmo:42043:1,2011-09-01T06:30:00Z,28.9818,-94.9186,1012.93,11111222 
TABS,ioos:station:wmo:42043:1,2011-09-01T07:00:00Z,28.9818,-94.9186,1012.6,11111222 
TABS,ioos:station:wmo:42043:1,2011-09-01T07:30:00Z,28.9818,-94.9186,1012.59,11111222 
TABS,ioos:station:wmo:42043:1,2011-09-01T08:00:00Z,28.9818,-94.9186,1012.64,11111222 
TABS,ioos:station:wmo:42043:1,2011-09-01T08:30:00Z,28.9818,-94.9186,1012.61,11111222 
TABS,ioos:station:wmo:42043:1,2011-09-01T09:00:00Z,28.9818,-94.9186,1012.6,11111222 
TABS,ioos:station:wmo:42043:1,2011-09-01T09:30:00Z,28.9818,-94.9186,1012.69,11111222 
TABS,ioos:station:wmo:42043:1,2011-09-01T10:00:00Z,28.9818,-94.9186,1012.87,11111222 
TABS,ioos:station:wmo:42043:1,2011-09-01T10:30:00Z,28.9818,-94.9186,1012.82,11111222 
TABS,ioos:station:wmo:42043:1,2011-09-01T11:00:00Z,28.9818,-94.9186,1012.84,11111222 
TABS,ioos:station:wmo:42043:1,2011-09-01T11:30:00Z,28.9818,-94.9186,1013.1,11111222 
TABS,ioos:station:wmo:42043:1,2011-09-01T12:00:00Z,28.9818,-94.9186,1013.25,11111222 
TABS,ioos:station:wmo:42043:1,2011-09-01T12:30:00Z,28.9818,-94.9186,1013.56,11111222 
TABS,ioos:station:wmo:42043:1,2011-09-01T13:00:00Z,28.9818,-94.9186,1013.83,11111222 
TABS,ioos:station:wmo:42043:1,2011-09-01T13:30:00Z,28.9818,-94.9186,1013.79,11111222 
TABS,ioos:station:wmo:42043:1,2011-09-01T14:00:00Z,28.9818,-94.9186,1013.84,11111222 
TABS,ioos:station:wmo:42043:1,2011-09-01T14:30:00Z,28.9818,-94.9186,1014.27,11111222 
TABS,ioos:station:wmo:42043:1,2011-09-01T15:00:00Z,28.9818,-94.9186,1014.29,11111222 
TABS,ioos:station:wmo:42043:1,2011-09-01T15:30:00Z,28.9818,-94.9186,1014.25,11111222 
TABS,ioos:station:wmo:42043:1,2011-09-01T16:00:00Z,28.9818,-94.9186,1014.28,11111222 
TABS,ioos:station:wmo:42043:1,2011-09-01T16:30:00Z,28.9818,-94.9186,1014.24,11111222 
TABS,ioos:station:wmo:42043:1,2011-09-01T17:00:00Z,28.9818,-94.9186,1013.79,11111222 
TABS,ioos:station:wmo:42043:1,2011-09-01T17:30:00Z,28.9818,-94.9186,1013.58,11111222 
TABS,ioos:station:wmo:42043:1,2011-09-01T18:00:00Z,28.9818,-94.9186,1013.25,11111222 
TABS,ioos:station:wmo:42043:1,2011-09-01T18:30:00Z,28.9818,-94.9186,1013.05,11111222 
TABS,ioos:station:wmo:42043:1,2011-09-01T19:00:00Z,28.9818,-94.9186,1012.78,11111222 
TABS,ioos:station:wmo:42043:1,2011-09-01T19:30:00Z,28.9818,-94.9186,1012.44,11111222 
TABS,ioos:station:wmo:42043:1,2011-09-01T20:00:00Z,28.9818,-94.9186,1012.07,11111222 
TABS,ioos:station:wmo:42043:1,2011-09-01T20:30:00Z,28.9818,-94.9186,1011.74,11111222 
TABS,ioos:station:wmo:42043:1,2011-09-01T21:00:00Z,28.9818,-94.9186,1011.64,11111222 
TABS,ioos:station:wmo:42043:1,2011-09-01T21:30:00Z,28.9818,-94.9186,1011.29,11111222 
TABS,ioos:station:wmo:42043:1,2011-09-01T22:00:00Z,28.9818,-94.9186,1010.77,11111222 
TABS,ioos:station:wmo:42043:1,2011-09-01T22:30:00Z,28.9818,-94.9186,1011.01,11111222 
TABS,ioos:station:wmo:42043:1,2011-09-01T23:00:00Z,28.9818,-94.9186,1011.01,11111222 
TABS,ioos:station:wmo:42043:1,2011-09-01T23:30:00Z,28.9818,-94.9186,1010.42,11111222 
TABS,ioos:station:wmo:42043:1,2011-09-02T00:00:00Z,28.9818,-94.9186,1010.18,11111222 
TABS,ioos:station:wmo:42043:1,2011-09-02T00:30:00Z,28.9818,-94.9186,1010.5,11111222 
TABS,ioos:station:wmo:42043:1,2011-09-02T01:00:00Z,28.9818,-94.9186,1010.34,11111222 
TABS,ioos:station:wmo:42043:1,2011-09-02T01:30:00Z,28.9818,-94.9186,1010.47,11111222 
TABS,ioos:station:wmo:42043:1,2011-09-02T02:00:00Z,28.9818,-94.9186,1010.38,11111222 
TABS,ioos:station:wmo:42043:1,2011-09-02T02:30:00Z,28.9818,-94.9186,1010.46,11111222 
TABS,ioos:station:wmo:42043:1,2011-09-02T03:00:00Z,28.9818,-94.9186,1010.58,11111222 
TABS,ioos:station:wmo:42043:1,2011-09-02T03:30:00Z,28.9818,-94.9186,1010.95,11111222 
TABS,ioos:station:wmo:42043:1,2011-09-02T04:00:00Z,28.9818,-94.9186,1010.92,11111222 
TABS,ioos:station:wmo:42043:1,2011-09-02T04:30:00Z,28.9818,-94.9186,1010.95,11111222 
TABS,ioos:station:wmo:42043:1,2011-09-02T05:00:00Z,28.9818,-94.9186,1010.78,11111222 
TABS,ioos:station:wmo:42043:1,2011-09-02T05:30:00Z,28.9818,-94.9186,1010.47,11111222 
TABS,ioos:station:wmo:42043:1,2011-09-02T06:00:00Z,28.9818,-94.9186,1010.35,11111222 
TABS,ioos:station:wmo:42043:1,2011-09-02T06:30:00Z,28.9818,-94.9186,1010.2,11111222 
TABS,ioos:station:wmo:42043:1,2011-09-02T07:00:00Z,28.9818,-94.9186,1010.12,11111222 
TABS,ioos:station:wmo:42043:1,2011-09-02T07:30:00Z,28.9818,-94.9186,1009.76,11111222 
TABS,ioos:station:wmo:42043:1,2011-09-02T08:00:00Z,28.9818,-94.9186,1009.5,11111222 
TABS,ioos:station:wmo:42043:1,2011-09-02T08:30:00Z,28.9818,-94.9186,1009.64,11111222 
TABS,ioos:station:wmo:42043:1,2011-09-02T09:00:00Z,28.9818,-94.9186,1009.36,11111222 
TABS,ioos:station:wmo:42043:1,2011-09-02T09:30:00Z,28.9818,-94.9186,1009.48,11111222 
TABS,ioos:station:wmo:42043:1,2011-09-02T10:00:00Z,28.9818,-94.9186,1009.06,11111222 
TABS,ioos:station:wmo:42043:1,2011-09-02T10:30:00Z,28.9818,-94.9186,1009.04,11111222 
TABS,ioos:station:wmo:42043:1,2011-09-02T11:00:00Z,28.9818,-94.9186,1009.07,11111222 
TABS,ioos:station:wmo:42043:1,2011-09-02T11:30:00Z,28.9818,-94.9186,1009.28,11111222 
TABS,ioos:station:wmo:42043:1,2011-09-02T12:00:00Z,28.9818,-94.9186,1009.31,11111222 
TABS,ioos:station:wmo:42043:1,2011-09-02T12:30:00Z,28.9818,-94.9186,1009.45,11111222 
TABS,ioos:station:wmo:42043:1,2011-09-02T13:00:00Z,28.9818,-94.9186,1009.47,11111222 
TABS,ioos:station:wmo:42043:1,2011-09-02T13:30:00Z,28.9818,-94.9186,1009.51,11111222 
TABS,ioos:station:wmo:42043:1,2011-09-02T14:00:00Z,28.9818,-94.9186,1009.27,11111222 
TABS,ioos:station:wmo:42043:1,2011-09-02T14:30:00Z,28.9818,-94.9186,1009.47,11111222 
TABS,ioos:station:wmo:42043:1,2011-09-02T15:00:00Z,28.9818,-94.9186,1009.71,11111222 
TABS,ioos:station:wmo:42043:1,2011-09-02T15:30:00Z,28.9818,-94.9186,1009.83,11111222 
TABS,ioos:station:wmo:42043:1,2011-09-02T16:00:00Z,28.9818,-94.9186,1009.67,11111222 
TABS,ioos:station:wmo:42043:1,2011-09-02T16:30:00Z,28.9818,-94.9186,1009.64,11111222 
TABS,ioos:station:wmo:42043:1,2011-09-02T17:00:00Z,28.9818,-94.9186,1009.72,11111222 
TABS,ioos:station:wmo:42043:1,2011-09-02T17:30:00Z,28.9818,-94.9186,1009.1,11111222 
TABS,ioos:station:wmo:42043:1,2011-09-02T18:00:00Z,28.9818,-94.9186,1008.77,11111222 
TABS,ioos:station:wmo:42043:1,2011-09-02T18:30:00Z,28.9818,-94.9186,1008.58,11111222 
TABS,ioos:station:wmo:42043:1,2011-09-02T19:00:00Z,28.9818,-94.9186,1008.31,11111222 
TABS,ioos:station:wmo:42043:1,2011-09-02T19:30:00Z,28.9818,-94.9186,1007.93,11111222 
TABS,ioos:station:wmo:42043:1,2011-09-02T20:00:00Z,28.9818,-94.9186,1007.72,11111222 
TABS,ioos:station:wmo:42043:1,2011-09-02T20:30:00Z,28.9818,-94.9186,1007.42,11111222 
TABS,ioos:station:wmo:42043:1,2011-09-02T21:00:00Z,28.9818,-94.9186,1007.16,11111222 
TABS,ioos:station:wmo:42043:1,2011-09-02T21:30:00Z,28.9818,-94.9186,1006.85,11111222 
TABS,ioos:station:wmo:42043:1,2011-09-02T22:00:00Z,28.9818,-94.9186,1006.85,11111222 
TABS,ioos:station:wmo:42043:1,2011-09-02T22:30:00Z,28.9818,-94.9186,1006.91,11111222 
TABS,ioos:station:wmo:42043:1,2011-09-02T23:00:00Z,28.9818,-94.9186,1007.0,11111222 
TABS,ioos:station:wmo:42043:1,2011-09-02T23:30:00Z,28.9818,-94.9186,1006.66,11111222 
TABS,ioos:station:wmo:42043:1,2011-09-03T00:00:00Z,28.9818,-94.9186,1006.66,11111222 
TABS,ioos:station:wmo:42043:1,2011-09-03T00:30:00Z,28.9818,-94.9186,1006.53,11111222 
TABS,ioos:station:wmo:42043:1,2011-09-03T01:00:00Z,28.9818,-94.9186,1006.58,11111222 
TABS,ioos:station:wmo:42043:1,2011-09-03T01:30:00Z,28.9818,-94.9186,1006.45,11111222 
TABS,ioos:station:wmo:42043:1,2011-09-03T02:00:00Z,28.9818,-94.9186,1006.61,11111222 
TABS,ioos:station:wmo:42043:1,2011-09-03T02:30:00Z,28.9818,-94.9186,1006.92,11111222 
TABS,ioos:station:wmo:42043:1,2011-09-03T03:00:00Z,28.9818,-94.9186,1006.78,11111222 
TABS,ioos:station:wmo:42043:1,2011-09-03T03:30:00Z,28.9818,-94.9186,1006.62,11111222 
TABS,ioos:station:wmo:42043:1,2011-09-03T04:00:00Z,28.9818,-94.9186,1006.79,11111222 
TABS,ioos:station:wmo:42043:1,2011-09-03T04:30:00Z,28.9818,-94.9186,1006.71,11111222 
TABS,ioos:station:wmo:42043:1,2011-09-03T05:00:00Z,28.9818,-94.9186,1006.65,11111222 
TABS,ioos:station:wmo:42043:1,2011-09-03T05:30:00Z,28.9818,-94.9186,1005.88,11111222 
TABS,ioos:station:wmo:42043:1,2011-09-03T06:00:00Z,28.9818,-94.9186,1005.88,11111222 
TABS,ioos:station:wmo:42043:1,2011-09-03T06:30:00Z,28.9818,-94.9186,1005.43,11111222 
TABS,ioos:station:wmo:42043:1,2011-09-03T07:00:00Z,28.9818,-94.9186,1005.19,11111222 
TABS,ioos:station:wmo:42043:1,2011-09-03T07:30:00Z,28.9818,-94.9186,1004.87,11111222 
TABS,ioos:station:wmo:42043:1,2011-09-03T08:00:00Z,28.9818,-94.9186,1004.71,11111222 
TABS,ioos:station:wmo:42043:1,2011-09-03T08:30:00Z,28.9818,-94.9186,1004.05,11111222 
TABS,ioos:station:wmo:42043:1,2011-09-03T09:00:00Z,28.9818,-94.9186,1003.95,11111222 
TABS,ioos:station:wmo:42043:1,2011-09-03T09:30:00Z,28.9818,-94.9186,1003.85,11111222 
TABS,ioos:station:wmo:42043:1,2011-09-03T10:00:00Z,28.9818,-94.9186,1003.59,11111222 
TABS,ioos:station:wmo:42043:1,2011-09-03T10:30:00Z,28.9818,-94.9186,1003.24,11111222 
TABS,ioos:station:wmo:42043:1,2011-09-03T11:00:00Z,28.9818,-94.9186,1003.15,11111222 
TABS,ioos:station:wmo:42043:1,2011-09-03T11:30:00Z,28.9818,-94.9186,1003.31,11111222 
TABS,ioos:station:wmo:42043:1,2011-09-03T12:00:00Z,28.9818,-94.9186,1003.67,11111222 
TABS,ioos:station:wmo:42043:1,2011-09-03T12:30:00Z,28.9818,-94.9186,1003.54,11111222 
TABS,ioos:station:wmo:42043:1,2011-09-03T13:00:00Z,28.9818,-94.9186,1003.65,11111222 
TABS,ioos:station:wmo:42043:1,2011-09-03T13:30:00Z,28.9818,-94.9186,1003.28,11111222 
TABS,ioos:station:wmo:42043:1,2011-09-03T14:00:00Z,28.9818,-94.9186,1003.3,11111222 
TABS,ioos:station:wmo:42043:1,2011-09-03T14:30:00Z,28.9818,-94.9186,1003.5,11111222 
TABS,ioos:station:wmo:42043:1,2011-09-03T15:00:00Z,28.9818,-94.9186,1003.49,11111222 
TABS,ioos:station:wmo:42043:1,2011-09-03T15:30:00Z,28.9818,-94.9186,1003.26,11111222 
TABS,ioos:station:wmo:42043:1,2011-09-03T16:00:00Z,28.9818,-94.9186,1003.58,11111222 
TABS,ioos:station:wmo:42043:1,2011-09-03T16:30:00Z,28.9818,-94.9186,1003.2,11111222 
TABS,ioos:station:wmo:42043:1,2011-09-03T17:00:00Z,28.9818,-94.9186,1002.81,11111222 
TABS,ioos:station:wmo:42043:1,2011-09-03T17:30:00Z,28.9818,-94.9186,1002.72,11111222 
TABS,ioos:station:wmo:42043:1,2011-09-03T18:00:00Z,28.9818,-94.9186,1002.48,11111222 
TABS,ioos:station:wmo:42043:1,2011-09-03T18:30:00Z,28.9818,-94.9186,1002.13,11111222 
TABS,ioos:station:wmo:42043:1,2011-09-03T19:00:00Z,28.9818,-94.9186,1002.06,11111222 
TABS,ioos:station:wmo:42043:1,2011-09-03T19:30:00Z,28.9818,-94.9186,1001.45,11111222 
TABS,ioos:station:wmo:42043:1,2011-09-03T20:00:00Z,28.9818,-94.9186,1001.36,11111222 
TABS,ioos:station:wmo:42043:1,2011-09-03T20:30:00Z,28.9818,-94.9186,1001.21,11111222 
TABS,ioos:station:wmo:42043:1,2011-09-03T21:00:00Z,28.9818,-94.9186,1001.23,11111222 
TABS,ioos:station:wmo:42043:1,2011-09-03T21:30:00Z,28.9818,-94.9186,1001.15,11111222 
TABS,ioos:station:wmo:42043:1,2011-09-03T22:00:00Z,28.9818,-94.9186,1001.06,11111222 
TABS,ioos:station:wmo:42043:1,2011-09-03T22:30:00Z,28.9818,-94.9186,1000.93,11111222 
TABS,ioos:station:wmo:42043:1,2011-09-03T23:00:00Z,28.9818,-94.9186,1001.06,11111222 
TABS,ioos:station:wmo:42043:1,2011-09-03T23:30:00Z,28.9818,-94.9186,1000.67,11111222 
TABS,ioos:station:wmo:42043:1,2011-09-04T00:00:00Z,28.9818,-94.9186,1000.79,11111222 
TABS,ioos:station:wmo:42043:1,2011-09-04T00:30:00Z,28.9818,-94.9186,1000.57,11111222 
TABS,ioos:station:wmo:42043:1,2011-09-04T01:00:00Z,28.9818,-94.9186,1000.95,11111222 
TABS,ioos:station:wmo:42043:1,2011-09-04T01:30:00Z,28.9818,-94.9186,1000.63,11111222 
TABS,ioos:station:wmo:42043:1,2011-09-04T02:00:00Z,28.9818,-94.9186,1001.01,11111222 
TABS,ioos:station:wmo:42043:1,2011-09-04T02:30:00Z,28.9818,-94.9186,1000.89,11111222 
TABS,ioos:station:wmo:42043:1,2011-09-04T03:00:00Z,28.9818,-94.9186,1000.79,11111222 
TABS,ioos:station:wmo:42043:1,2011-09-04T03:30:00Z,28.9818,-94.9186,1000.8,11111222 
TABS,ioos:station:wmo:42043:1,2011-09-04T04:00:00Z,28.9818,-94.9186,1000.67,11111222 
TABS,ioos:station:wmo:42043:1,2011-09-04T04:30:00Z,28.9818,-94.9186,1001.03,11111222 
TABS,ioos:station:wmo:42043:1,2011-09-04T05:00:00Z,28.9818,-94.9186,1000.7,11111222 
TABS,ioos:station:wmo:42043:1,2011-09-04T05:30:00Z,28.9818,-94.9186,1000.67,11111222 
TABS,ioos:station:wmo:42043:1,2011-09-04T06:00:00Z,28.9818,-94.9186,1000.56,11111222 
TABS,ioos:station:wmo:42043:1,2011-09-04T06:30:00Z,28.9818,-94.9186,1000.47,11111222 
TABS,ioos:station:wmo:42043:1,2011-09-04T07:00:00Z,28.9818,-94.9186,1000.33,11111222 
TABS,ioos:station:wmo:42043:1,2011-09-04T07:30:00Z,28.9818,-94.9186,999.87,11111222 
TABS,ioos:station:wmo:42043:1,2011-09-04T08:00:00Z,28.9818,-94.9186,999.71,11111222 
TABS,ioos:station:wmo:42043:1,2011-09-04T08:30:00Z,28.9818,-94.9186,999.83,11111222 
TABS,ioos:station:wmo:42043:1,2011-09-04T09:00:00Z,28.9818,-94.9186,999.98,11111222 
TABS,ioos:station:wmo:42043:1,2011-09-04T09:30:00Z,28.9818,-94.9186,999.93,11111222 
TABS,ioos:station:wmo:42043:1,2011-09-04T10:00:00Z,28.9818,-94.9186,999.91,11111222 
TABS,ioos:station:wmo:42043:1,2011-09-04T10:30:00Z,28.9818,-94.9186,999.8,11111222 
TABS,ioos:station:wmo:42043:1,2011-09-04T11:00:00Z,28.9818,-94.9186,1000.13,11111222 
TABS,ioos:station:wmo:42043:1,2011-09-04T11:30:00Z,28.9818,-94.9186,1000.38,11111222 
TABS,ioos:station:wmo:42043:1,2011-09-04T12:00:00Z,28.9818,-94.9186,1000.46,11111222 
TABS,ioos:station:wmo:42043:1,2011-09-04T12:30:00Z,28.9818,-94.9186,1000.62,11111222 
TABS,ioos:station:wmo:42043:1,2011-09-04T13:00:00Z,28.9818,-94.9186,1001.18,11111222 
TABS,ioos:station:wmo:42043:1,2011-09-04T13:30:00Z,28.9818,-94.9186,1001.26,11111222 
TABS,ioos:station:wmo:42043:1,2011-09-04T14:00:00Z,28.9818,-94.9186,1001.33,11111222 
TABS,ioos:station:wmo:42043:1,2011-09-04T14:30:00Z,28.9818,-94.9186,1001.6,11111222 
TABS,ioos:station:wmo:42043:1,2011-09-04T15:00:00Z,28.9818,-94.9186,1001.83,11111222 
TABS,ioos:station:wmo:42043:1,2011-09-04T15:30:00Z,28.9818,-94.9186,1002.2,11111222 
TABS,ioos:station:wmo:42043:1,2011-09-04T16:00:00Z,28.9818,-94.9186,1002.13,11111222 
TABS,ioos:station:wmo:42043:1,2011-09-04T16:30:00Z,28.9818,-94.9186,1002.21,11111222 
TABS,ioos:station:wmo:42043:1,2011-09-04T17:00:00Z,28.9818,-94.9186,1002.19,11111222 
TABS,ioos:station:wmo:42043:1,2011-09-04T17:30:00Z,28.9818,-94.9186,1002.43,11111222 
TABS,ioos:station:wmo:42043:1,2011-09-04T18:00:00Z,28.9818,-94.9186,1002.0,11111222 
TABS,ioos:station:wmo:42043:1,2011-09-04T18:30:00Z,28.9818,-94.9186,1002.05,11111222 
TABS,ioos:station:wmo:42043:1,2011-09-04T19:00:00Z,28.9818,-94.9186,1002.08,11111222 
TABS,ioos:station:wmo:42043:1,2011-09-04T19:30:00Z,28.9818,-94.9186,1002.27,11111222 
TABS,ioos:station:wmo:42043:1,2011-09-04T20:00:00Z,28.9818,-94.9186,1002.18,11111222 
TABS,ioos:station:wmo:42043:1,2011-09-04T20:30:00Z,28.9818,-94.9186,1002.14,11111222 
TABS,ioos:station:wmo:42043:1,2011-09-04T21:00:00Z,28.9818,-94.9186,1001.75,11111222 
TABS,ioos:station:wmo:42043:1,2011-09-04T21:30:00Z,28.9818,-94.9186,1001.54,11111222 
TABS,ioos:station:wmo:42043:1,2011-09-04T22:00:00Z,28.9818,-94.9186,1001.89,11111222 
TABS,ioos:station:wmo:42043:1,2011-09-04T22:30:00Z,28.9818,-94.9186,1002.3,11111222 
TABS,ioos:station:wmo:42043:1,2011-09-04T23:00:00Z,28.9818,-94.9186,1002.54,11111222 
TABS,ioos:station:wmo:42043:1,2011-09-04T23:30:00Z,28.9818,-94.9186,1002.9,11111222 
TABS,ioos:station:wmo:42043:1,2011-09-05T00:00:00Z,28.9818,-94.9186,1002.88,11111222 
TABS,ioos:station:wmo:42043:1,2011-09-05T00:30:00Z,28.9818,-94.9186,1003.16,11111222 
TABS,ioos:station:wmo:42043:1,2011-09-05T01:00:00Z,28.9818,-94.9186,1003.26,11111222 
TABS,ioos:station:wmo:42043:1,2011-09-05T01:30:00Z,28.9818,-94.9186,1003.6,11111222 
TABS,ioos:station:wmo:42043:1,2011-09-05T02:00:00Z,28.9818,-94.9186,1003.38,11111222 
TABS,ioos:station:wmo:42043:1,2011-09-05T02:30:00Z,28.9818,-94.9186,1003.9,11111222 
TABS,ioos:station:wmo:42043:1,2011-09-05T03:00:00Z,28.9818,-94.9186,1004.2,11111222 
TABS,ioos:station:wmo:42043:1,2011-09-05T03:30:00Z,28.9818,-94.9186,1004.41,11111222 
TABS,ioos:station:wmo:42043:1,2011-09-05T04:00:00Z,28.9818,-94.9186,1004.43,11111222 
TABS,ioos:station:wmo:42043:1,2011-09-05T04:30:00Z,28.9818,-94.9186,1004.9,11111222 
TABS,ioos:station:wmo:42043:1,2011-09-05T05:00:00Z,28.9818,-94.9186,1004.76,11111222 
TABS,ioos:station:wmo:42043:1,2011-09-05T05:30:00Z,28.9818,-94.9186,1005.1,11111222 
TABS,ioos:station:wmo:42043:1,2011-09-05T06:00:00Z,28.9818,-94.9186,1005.11,11111222 
TABS,ioos:station:wmo:42043:1,2011-09-05T06:30:00Z,28.9818,-94.9186,1005.4,11111222 
TABS,ioos:station:wmo:42043:1,2011-09-05T07:00:00Z,28.9818,-94.9186,1005.4,11111222 
TABS,ioos:station:wmo:42043:1,2011-09-05T07:30:00Z,28.9818,-94.9186,1005.51,11111222 
TABS,ioos:station:wmo:42043:1,2011-09-05T08:00:00Z,28.9818,-94.9186,1005.66,11111222 
TABS,ioos:station:wmo:42043:1,2011-09-05T08:30:00Z,28.9818,-94.9186,1006.09,11111222 
TABS,ioos:station:wmo:42043:1,2011-09-05T09:00:00Z,28.9818,-94.9186,1006.2,11111222 
TABS,ioos:station:wmo:42043:1,2011-09-05T09:30:00Z,28.9818,-94.9186,1006.36,11111222 
TABS,ioos:station:wmo:42043:1,2011-09-05T10:00:00Z,28.9818,-94.9186,1006.68,11111222 
TABS,ioos:station:wmo:42043:1,2011-09-05T10:30:00Z,28.9818,-94.9186,1007.16,11111222 
TABS,ioos:station:wmo:42043:1,2011-09-05T11:00:00Z,28.9818,-94.9186,1007.23,11111222 
TABS,ioos:station:wmo:42043:1,2011-09-05T11:30:00Z,28.9818,-94.9186,1007.61,11111222 
TABS,ioos:station:wmo:42043:1,2011-09-05T12:00:00Z,28.9818,-94.9186,1007.81,11111222 
TABS,ioos:station:wmo:42043:1,2011-09-05T12:30:00Z,28.9818,-94.9186,1008.23,11111222 
TABS,ioos:station:wmo:42043:1,2011-09-05T13:00:00Z,28.9818,-94.9186,1008.58,11111222 
TABS,ioos:station:wmo:42043:1,2011-09-05T13:30:00Z,28.9818,-94.9186,1008.58,11111222 
TABS,ioos:station:wmo:42043:1,2011-09-05T14:00:00Z,28.9818,-94.9186,1008.89,11111222 
TABS,ioos:station:wmo:42043:1,2011-09-05T14:30:00Z,28.9818,-94.9186,1009.05,11111222 
TABS,ioos:station:wmo:42043:1,2011-09-05T15:00:00Z,28.9818,-94.9186,1009.28,11111222 
TABS,ioos:station:wmo:42043:1,2011-09-05T15:30:00Z,28.9818,-94.9186,1009.84,11111222 
TABS,ioos:station:wmo:42043:1,2011-09-05T16:00:00Z,28.9818,-94.9186,1010.29,11111222 
TABS,ioos:station:wmo:42043:1,2011-09-05T16:30:00Z,28.9818,-94.9186,1010.41,11111222 
TABS,ioos:station:wmo:42043:1,2011-09-05T17:00:00Z,28.9818,-94.9186,1010.36,11111222 
TABS,ioos:station:wmo:42043:1,2011-09-05T17:30:00Z,28.9818,-94.9186,1010.18,11111222 
TABS,ioos:station:wmo:42043:1,2011-09-05T18:00:00Z,28.9818,-94.9186,1010.1,11111222 
TABS,ioos:station:wmo:42043:1,2011-09-05T18:30:00Z,28.9818,-94.9186,1009.81,11111222 
TABS,ioos:station:wmo:42043:1,2011-09-05T19:00:00Z,28.9818,-94.9186,1009.61,11111222 
TABS,ioos:station:wmo:42043:1,2011-09-05T19:30:00Z,28.9818,-94.9186,1009.29,11111222 
TABS,ioos:station:wmo:42043:1,2011-09-05T20:00:00Z,28.9818,-94.9186,1009.37,11111222 
TABS,ioos:station:wmo:42043:1,2011-09-05T20:30:00Z,28.9818,-94.9186,1009.13,11111222 
TABS,ioos:station:wmo:42043:1,2011-09-05T21:00:00Z,28.9818,-94.9186,1009.06,11111222 
TABS,ioos:station:wmo:42043:1,2011-09-05T21:30:00Z,28.9818,-94.9186,1009.03,11111222 
TABS,ioos:station:wmo:42043:1,2011-09-05T22:00:00Z,28.9818,-94.9186,1009.08,11111222 
TABS,ioos:station:wmo:42043:1,2011-09-05T22:30:00Z,28.9818,-94.9186,1009.13,11111222 
TABS,ioos:station:wmo:42043:1,2011-09-05T23:00:00Z,28.9818,-94.9186,1009.25,11111222 
TABS,ioos:station:wmo:42043:1,2011-09-05T23:30:00Z,28.9818,-94.9186,1009.55,11111222 
TABS,ioos:station:wmo:42043:1,2011-09-06T00:00:00Z,28.9818,-94.9186,1009.64,11111222 
TABS,ioos:station:wmo:42043:1,2011-09-06T00:30:00Z,28.9818,-94.9186,1009.95,11111222 
TABS,ioos:station:wmo:42043:1,2011-09-06T01:00:00Z,28.9818,-94.9186,1010.28,11111222 
TABS,ioos:station:wmo:42043:1,2011-09-06T01:30:00Z,28.9818,-94.9186,1010.62,11111222 
TABS,ioos:station:wmo:42043:1,2011-09-06T02:00:00Z,28.9818,-94.9186,1011.18,11111222 
TABS,ioos:station:wmo:42043:1,2011-09-06T02:30:00Z,28.9818,-94.9186,1011.72,11111222 
TABS,ioos:station:wmo:42043:1,2011-09-06T03:00:00Z,28.9818,-94.9186,1011.99,11111222 
TABS,ioos:station:wmo:42043:1,2011-09-06T03:30:00Z,28.9818,-94.9186,1011.95,11111222 
TABS,ioos:station:wmo:42043:1,2011-09-06T04:00:00Z,28.9818,-94.9186,1012.36,11111222 
TABS,ioos:station:wmo:42043:1,2011-09-06T04:30:00Z,28.9818,-94.9186,1012.5,11111222 
TABS,ioos:station:wmo:42043:1,2011-09-06T05:00:00Z,28.9818,-94.9186,1012.56,11111222 
TABS,ioos:station:wmo:42043:1,2011-09-06T05:30:00Z,28.9818,-94.9186,1012.63,11111222 
TABS,ioos:station:wmo:42043:1,2011-09-06T06:00:00Z,28.9818,-94.9186,1012.68,11111222 
TABS,ioos:station:wmo:42043:1,2011-09-06T06:30:00Z,28.9818,-94.9186,1012.69,11111222 
TABS,ioos:station:wmo:42043:1,2011-09-06T07:00:00Z,28.9818,-94.9186,1012.71,11111222 
TABS,ioos:station:wmo:42043:1,2011-09-06T07:30:00Z,28.9818,-94.9186,1012.77,11111222 
TABS,ioos:station:wmo:42043:1,2011-09-06T08:00:00Z,28.9818,-94.9186,1012.94,11111222 
TABS,ioos:station:wmo:42043:1,2011-09-06T08:30:00Z,28.9818,-94.9186,1013.22,11111222 
TABS,ioos:station:wmo:42043:1,2011-09-06T09:00:00Z,28.9818,-94.9186,1013.32,11111222 
TABS,ioos:station:wmo:42043:1,2011-09-06T09:30:00Z,28.9818,-94.9186,1013.48,11111222 
TABS,ioos:station:wmo:42043:1,2011-09-06T10:00:00Z,28.9818,-94.9186,1013.56,11111222 
TABS,ioos:station:wmo:42043:1,2011-09-06T10:30:00Z,28.9818,-94.9186,1014.05,11111222 
TABS,ioos:station:wmo:42043:1,2011-09-06T11:00:00Z,28.9818,-94.9186,1014.34,11111222 
TABS,ioos:station:wmo:42043:1,2011-09-06T11:30:00Z,28.9818,-94.9186,1014.71,11111222 
TABS,ioos:station:wmo:42043:1,2011-09-06T12:00:00Z,28.9818,-94.9186,1014.89,11111222 
TABS,ioos:station:wmo:42043:1,2011-09-06T12:30:00Z,28.9818,-94.9186,1015.07,11111222 
TABS,ioos:station:wmo:42043:1,2011-09-06T13:00:00Z,28.9818,-94.9186,1015.5,11111222 
TABS,ioos:station:wmo:42043:1,2011-09-06T13:30:00Z,28.9818,-94.9186,1015.82,11111222 
TABS,ioos:station:wmo:42043:1,2011-09-06T14:00:00Z,28.9818,-94.9186,1016.15,11111222 
TABS,ioos:station:wmo:42043:1,2011-09-06T14:30:00Z,28.9818,-94.9186,1016.33,11111222 
TABS,ioos:station:wmo:42043:1,2011-09-06T15:00:00Z,28.9818,-94.9186,1016.64,11111222 
TABS,ioos:station:wmo:42043:1,2011-09-06T15:30:00Z,28.9818,-94.9186,1016.76,11111222 
TABS,ioos:station:wmo:42043:1,2011-09-06T16:00:00Z,28.9818,-94.9186,1016.8,11111222 
TABS,ioos:station:wmo:42043:1,2011-09-06T16:30:00Z,28.9818,-94.9186,1016.81,11111222 
TABS,ioos:station:wmo:42043:1,2011-09-06T17:00:00Z,28.9818,-94.9186,1016.61,11111222 
TABS,ioos:station:wmo:42043:1,2011-09-06T17:30:00Z,28.9818,-94.9186,1016.34,11111222 
TABS,ioos:station:wmo:42043:1,2011-09-06T18:00:00Z,28.9818,-94.9186,1016.03,11111222 
TABS,ioos:station:wmo:42043:1,2011-09-06T18:30:00Z,28.9818,-94.9186,1016.0,11111222 